| time (UTC) | temp F | wind direction | speed MPH | gust MPH | rain 1hr in | rain 24hr in | rain mn in | humidity % | barometer mb |
| 20260502170501 | 58 | 5 | 4.0 | 11.0 | 0.00 | 0.00 | 0.00 | 62 | 1012.1 |
| 20260502164004 | 57 | 32 | 3.0 | 8.0 | 0.00 | 0.00 | 0.00 | 65 | 1012.5 |
| 20260502163504 | 57 | 348 | 3.0 | 8.0 | 0.00 | 0.00 | 0.00 | 63 | 1012.5 |
| 20260502163006 | 57 | 336 | 4.0 | 9.0 | 0.00 | 0.00 | 0.00 | 63 | 1012.5 |
| 20260502162504 | 56 | 338 | 3.0 | 9.0 | 0.00 | 0.00 | 0.00 | 61 | 1012.6 |
| 20260502162003 | 57 | 32 | 3.0 | 7.0 | 0.00 | 0.00 | 0.00 | 63 | 1012.6 |
| 20260502161502 | 57 | 347 | 3.0 | 8.0 | 0.00 | 0.00 | 0.00 | 65 | 1012.7 |
| 20260502160502 | 57 | 325 | 3.0 | 8.0 | 0.00 | 0.00 | 0.00 | 66 | 1012.8 |
| 20260502152003 | 56 | 321 | 4.0 | 11.0 | 0.00 | 0.00 | 0.00 | 63 | 1012.8 |
| 20260502151502 | 57 | 21 | 4.0 | 11.0 | 0.00 | 0.00 | 0.00 | 62 | 1012.7 |
| 20260502151005 | 56 | 41 | 5.0 | 13.0 | 0.00 | 0.00 | 0.00 | 65 | 1012.7 |
| 20260502150503 | 55 | 355 | 6.0 | 13.0 | 0.00 | 0.00 | 0.00 | 64 | 1012.7 |
| 20260502130502 | 54 | 326 | 5.0 | 11.0 | 0.00 | 0.00 | 0.00 | 71 | 1012.9 |
| 20260502123004 | 52 | 346 | 4.0 | 9.0 | 0.00 | 0.00 | 0.00 | 78 | 1012.9 |
| 20260502122503 | 52 | 332 | 4.0 | 8.0 | 0.00 | 0.00 | 0.00 | 80 | 1013.0 |
| 20260502122002 | 52 | 340 | 3.0 | 6.0 | 0.00 | 0.00 | 0.00 | 80 | 1013.0 |
| 20260502121503 | 52 | 348 | 3.0 | 9.0 | 0.00 | 0.00 | 0.00 | 79 | 1012.9 |
| 20260502121002 | 52 | 327 | 3.0 | 8.0 | 0.00 | 0.00 | 0.00 | 80 | 1013.1 |
| 20260502120502 | 52 | 313 | 3.0 | 8.0 | 0.00 | 0.00 | 0.00 | 80 | 1013.2 |
| 20260502115501 | 51 | 302 | 2.0 | 5.0 | 0.00 | 0.00 | 0.00 | 84 | 1013.2 |
| 20260502115002 | 51 | 301 | 2.0 | 5.0 | 0.00 | 0.00 | 0.00 | 84 | 1013.1 |
| 20260502114001 | 50 | 159 | 1.0 | 5.0 | 0.00 | 0.00 | 0.00 | 85 | 1012.9 |
| 20260502113501 | 50 | 162 | 1.0 | 3.0 | 0.00 | 0.00 | 0.00 | 86 | 1012.9 |
| 20260502113002 | 50 | 162 | 1.0 | 3.0 | 0.00 | 0.00 | 0.00 | 86 | 1013.0 |
| 20260502112501 | 50 | 162 | 1.0 | 5.0 | 0.00 | 0.00 | 0.00 | 86 | 1013.0 |
| 20260502111502 | 49 | 161 | 0.0 | 2.0 | 0.00 | 0.00 | 0.00 | 87 | 1013.0 |
| 20260502111002 | 49 | 161 | 1.0 | 5.0 | 0.00 | 0.00 | 0.00 | 87 | 1013.0 |
| 20260502110501 | 49 | 161 | 1.0 | 5.0 | 0.00 | 0.00 | 0.00 | 88 | 1012.9 |
| 20260502110005 | 49 | 161 | 1.0 | 2.0 | 0.00 | 0.00 | 0.00 | 88 | 1012.8 |
| 20260502105500 | 49 | 161 | 1.0 | 2.0 | 0.00 | 0.00 | 0.00 | 88 | 1012.7 |
| 20260502105004 | 48 | 161 | 1.0 | 2.0 | 0.00 | 0.00 | 0.00 | 88 | 1012.7 |
| 20260502104501 | 48 | 161 | 1.0 | 2.0 | 0.00 | 0.00 | 0.00 | 89 | 1012.6 |
| 20260502103501 | 48 | 161 | 0.0 | 2.0 | 0.00 | 0.00 | 0.00 | 89 | 1012.5 |
| 20260502103001 | 48 | 161 | 0.0 | 2.0 | 0.00 | 0.00 | 0.00 | 89 | 1012.5 |
| 20260502102500 | 48 | 161 | 1.0 | 2.0 | 0.00 | 0.00 | 0.00 | 89 | 1012.5 |
| 20260502102001 | 48 | 161 | 1.0 | 3.0 | 0.00 | 0.00 | 0.00 | 89 | 1012.4 |
| 20260502101501 | 47 | 161 | 1.0 | 3.0 | 0.00 | 0.00 | 0.00 | 89 | 1012.3 |
| 20260502101002 | 47 | 161 | 0.0 | 4.0 | 0.00 | 0.00 | 0.00 | 89 | 1012.3 |
| 20260502100500 | 47 | 161 | 0.0 | 2.0 | 0.00 | 0.00 | 0.00 | 89 | 1012.2 |
| 20260502091500 | 46 | 162 | 1.0 | 3.0 | 0.00 | 0.00 | 0.00 | 88 | 1012.0 |
| 20260502091001 | 46 | 162 | 0.0 | 2.0 | 0.00 | 0.00 | 0.00 | 88 | 1012.0 |
| 20260502090501 | 46 | 162 | 1.0 | 2.0 | 0.00 | 0.00 | 0.00 | 88 | 1012.0 |
| 20260502071001 | 48 | 162 | 0.0 | 3.0 | 0.00 | 0.00 | 0.00 | 86 | 1011.8 |
| 20260502070500 | 47 | 162 | 0.0 | 2.0 | 0.00 | 0.00 | 0.00 | 87 | 1012.0 |
| 20260502070001 | 47 | 162 | 0.0 | 2.0 | 0.00 | 0.00 | 0.00 | 87 | 1012.1 |
| 20260502065002 | 47 | 162 | 0.0 | 2.0 | 0.00 | 0.00 | 0.00 | 86 | 1012.2 |
| 20260502064001 | 48 | 162 | 1.0 | 3.0 | 0.00 | 0.00 | 0.00 | 86 | 1012.2 |
| 20260502063000 | 48 | 162 | 1.0 | 3.0 | 0.00 | 0.00 | 0.00 | 86 | 1012.2 |
| 20260502062500 | 48 | 162 | 0.0 | 3.0 | 0.00 | 0.00 | 0.00 | 86 | 1012.3 |
| 20260502062001 | 48 | 162 | 0.0 | 3.0 | 0.00 | 0.00 | 0.00 | 86 | 1012.3 |
| 20260502061500 | 48 | 162 | 1.0 | 5.0 | 0.00 | 0.00 | 0.00 | 86 | 1012.2 |
| 20260502061001 | 48 | 159 | 1.0 | 3.0 | 0.00 | 0.00 | 0.00 | 85 | 1012.3 |
| 20260502060501 | 48 | 159 | 1.0 | 5.0 | 0.00 | 0.00 | 0.00 | 85 | 1012.4 |
| 20260502060002 | 48 | 159 | 1.0 | 5.0 | 0.00 | 0.00 | 0.00 | 85 | 1012.5 |
| 20260502055500 | 49 | 158 | 1.0 | 6.0 | 0.00 | 0.00 | 0.00 | 85 | 1012.6 |
| 20260502055000 | 49 | 156 | 2.0 | 6.0 | 0.00 | 0.00 | 0.00 | 85 | 1012.6 |
| 20260502054459 | 48 | 147 | 1.0 | 5.0 | 0.00 | 0.00 | 0.00 | 85 | 1012.6 |
| 20260502054000 | 48 | 192 | 1.0 | 4.0 | 0.00 | 0.00 | 0.00 | 86 | 1012.6 |
| 20260502053459 | 48 | 186 | 1.0 | 4.0 | 0.00 | 0.00 | 0.00 | 86 | 1012.7 |
| 20260502053000 | 48 | 199 | 1.0 | 3.0 | 0.00 | 0.00 | 0.00 | 86 | 1012.7 |
| 20260502052001 | 48 | 199 | 1.0 | 4.0 | 0.00 | 0.00 | 0.00 | 85 | 1012.7 |
| 20260502051500 | 48 | 198 | 1.0 | 4.0 | 0.00 | 0.00 | 0.00 | 85 | 1012.8 |
| 20260502050959 | 48 | 198 | 1.0 | 3.0 | 0.00 | 0.00 | 0.00 | 85 | 1012.8 |
| 20260502050459 | 49 | 198 | 1.0 | 4.0 | 0.00 | 0.00 | 0.00 | 85 | 1012.9 |
| 20260502050008 | 48 | 198 | 1.0 | 4.0 | 0.00 | 0.00 | 0.00 | 85 | 1013.0 |
| 20260502045506 | 48 | 197 | 1.0 | 2.0 | 0.00 | 0.00 | 0.00 | 84 | 1013.1 |
| 20260502045007 | 49 | 197 | 1.0 | 4.0 | 0.00 | 0.00 | 0.00 | 84 | 1013.0 |
| 20260502044505 | 49 | 197 | 2.0 | 4.0 | 0.00 | 0.00 | 0.00 | 84 | 1013.1 |
| 20260502044006 | 49 | 199 | 2.0 | 4.0 | 0.00 | 0.00 | 0.00 | 84 | 1013.1 |
| 20260502043506 | 49 | 199 | 1.0 | 4.0 | 0.00 | 0.00 | 0.00 | 84 | 1013.1 |
| 20260502043007 | 49 | 198 | 1.0 | 4.0 | 0.00 | 0.00 | 0.00 | 84 | 1013.0 |
| 20260502042505 | 49 | 198 | 1.0 | 5.0 | 0.00 | 0.00 | 0.00 | 84 | 1013.1 |
| 20260502042006 | 49 | 198 | 1.0 | 5.0 | 0.00 | 0.00 | 0.00 | 84 | 1012.9 |
| 20260502041505 | 49 | 198 | 1.0 | 5.0 | 0.00 | 0.00 | 0.00 | 84 | 1012.8 |
| 20260502041007 | 49 | 198 | 1.0 | 5.0 | 0.00 | 0.00 | 0.00 | 84 | 1012.8 |
| 20260502040505 | 49 | 193 | 1.0 | 4.0 | 0.00 | 0.00 | 0.00 | 83 | 1012.9 |
| 20260502040005 | 49 | 193 | 1.0 | 4.0 | 0.00 | 0.00 | 0.00 | 83 | 1013.0 |
| 20260502035504 | 49 | 192 | 1.0 | 4.0 | 0.00 | 0.00 | 0.00 | 82 | 1013.0 |
| 20260502035006 | 49 | 192 | 1.0 | 4.0 | 0.00 | 0.00 | 0.00 | 82 | 1012.9 |
| 20260502034504 | 50 | 192 | 1.0 | 5.0 | 0.00 | 0.00 | 0.00 | 82 | 1012.8 |
| 20260502034005 | 50 | 192 | 2.0 | 5.0 | 0.00 | 0.00 | 0.00 | 82 | 1012.8 |
| 20260502033504 | 50 | 192 | 2.0 | 5.0 | 0.00 | 0.00 | 0.00 | 81 | 1012.7 |
| 20260502033005 | 50 | 191 | 2.0 | 6.0 | 0.00 | 0.00 | 0.00 | 81 | 1012.7 |
| 20260502032505 | 50 | 191 | 2.0 | 6.0 | 0.00 | 0.00 | 0.00 | 81 | 1012.5 |
| 20260502032005 | 50 | 207 | 2.0 | 5.0 | 0.00 | 0.00 | 0.00 | 81 | 1012.7 |
| 20260502031503 | 50 | 207 | 2.0 | 5.0 | 0.00 | 0.00 | 0.00 | 81 | 1012.7 |
| 20260502031006 | 50 | 214 | 2.0 | 5.0 | 0.00 | 0.00 | 0.00 | 81 | 1012.7 |
| 20260502025504 | 51 | 200 | 3.0 | 7.0 | 0.00 | 0.00 | 0.00 | 81 | 1012.7 |
| 20260502025005 | 51 | 246 | 2.0 | 6.0 | 0.00 | 0.00 | 0.00 | 81 | 1012.8 |
| 20260502024504 | 51 | 217 | 2.0 | 5.0 | 0.00 | 0.00 | 0.00 | 81 | 1013.0 |
| 20260502024006 | 51 | 244 | 2.0 | 5.0 | 0.00 | 0.00 | 0.00 | 81 | 1012.9 |
| 20260502023504 | 51 | 212 | 3.0 | 7.0 | 0.00 | 0.00 | 0.00 | 80 | 1012.9 |
| 20260502023007 | 51 | 215 | 3.0 | 8.0 | 0.00 | 0.00 | 0.00 | 80 | 1012.9 |
| 20260502022505 | 51 | 186 | 3.0 | 9.0 | 0.00 | 0.00 | 0.00 | 80 | 1013.0 |
| 20260502022007 | 51 | 231 | 2.0 | 9.0 | 0.00 | 0.00 | 0.00 | 80 | 1013.1 |
| 20260502021505 | 51 | 208 | 2.0 | 9.0 | 0.00 | 0.00 | 0.00 | 80 | 1013.2 |
| 20260502021005 | 51 | 207 | 2.0 | 9.0 | 0.00 | 0.00 | 0.00 | 80 | 1013.2 |
| 20260502020503 | 51 | 249 | 2.0 | 8.0 | 0.00 | 0.00 | 0.00 | 79 | 1013.2 |
| 20260502020006 | 51 | 222 | 2.0 | 8.0 | 0.00 | 0.00 | 0.00 | 79 | 1013.3 |
| 20260502015503 | 52 | 219 | 2.0 | 6.0 | 0.00 | 0.00 | 0.00 | 78 | 1013.2 |
| 20260502015004 | 52 | 143 | 2.0 | 5.0 | 0.00 | 0.00 | 0.00 | 78 | 1013.1 |
| 20260502014504 | 52 | 141 | 2.0 | 7.0 | 0.00 | 0.00 | 0.00 | 78 | 1013.2 |
| 20260502014004 | 52 | 238 | 2.0 | 8.0 | 0.00 | 0.00 | 0.00 | 77 | 1013.2 |
| 20260502013505 | 52 | 182 | 2.0 | 8.0 | 0.00 | 0.00 | 0.00 | 77 | 1013.2 |
| 20260502013004 | 53 | 205 | 2.0 | 7.0 | 0.00 | 0.00 | 0.00 | 76 | 1012.9 |
| 20260502012503 | 53 | 208 | 2.0 | 7.0 | 0.00 | 0.00 | 0.00 | 76 | 1012.8 |
| 20260502012004 | 53 | 229 | 2.0 | 8.0 | 0.00 | 0.00 | 0.00 | 76 | 1012.8 |
| 20260502011503 | 53 | 135 | 2.0 | 7.0 | 0.00 | 0.00 | 0.00 | 74 | 1012.7 |
| 20260502011004 | 53 | 214 | 2.0 | 7.0 | 0.00 | 0.00 | 0.00 | 74 | 1012.7 |
| 20260502010007 | 54 | 215 | 2.0 | 7.0 | 0.00 | 0.00 | 0.00 | 73 | 1012.7 |
| 20260502005505 | 54 | 221 | 2.0 | 6.0 | 0.00 | 0.00 | 0.00 | 73 | 1012.7 |
| 20260502005005 | 54 | 221 | 2.0 | 6.0 | 0.00 | 0.00 | 0.00 | 72 | 1012.8 |
| 20260502004504 | 54 | 211 | 3.0 | 7.0 | 0.00 | 0.00 | 0.00 | 71 | 1012.9 |
| 20260502004005 | 55 | 209 | 2.0 | 4.0 | 0.00 | 0.00 | 0.00 | 70 | 1012.8 |
| 20260502003504 | 55 | 225 | 2.0 | 4.0 | 0.00 | 0.00 | 0.00 | 70 | 1012.7 |
| 20260502003004 | 55 | 225 | 2.0 | 6.0 | 0.00 | 0.00 | 0.00 | 69 | 1012.4 |
| 20260502002504 | 55 | 225 | 1.0 | 6.0 | 0.00 | 0.00 | 0.00 | 69 | 1012.4 |
| 20260502001505 | 56 | 205 | 1.0 | 5.0 | 0.00 | 0.00 | 0.00 | 68 | 1012.2 |
| 20260502000504 | 57 | 254 | 1.0 | 5.0 | 0.00 | 0.00 | 0.00 | 66 | 1012.0 |
| 20260502000005 | 57 | 237 | 1.0 | 6.0 | 0.00 | 0.00 | 0.00 | 66 | 1011.9 |
| 20260501235505 | 57 | 238 | 3.0 | 7.0 | 0.00 | 0.00 | 0.00 | 66 | 1011.8 |
| 20260501235005 | 58 | 226 | 3.0 | 7.0 | 0.00 | 0.00 | 0.00 | 65 | 1011.9 |
| 20260501234503 | 58 | 221 | 3.0 | 8.0 | 0.00 | 0.00 | 0.00 | 65 | 1011.8 |
| 20260501234004 | 58 | 240 | 3.0 | 8.0 | 0.00 | 0.00 | 0.00 | 64 | 1011.7 |
| 20260501233504 | 59 | 181 | 3.0 | 8.0 | 0.00 | 0.00 | 0.00 | 64 | 1011.7 |
| 20260501233005 | 59 | 212 | 3.0 | 8.0 | 0.00 | 0.00 | 0.00 | 63 | 1011.5 |
| 20260501232503 | 59 | 207 | 3.0 | 8.0 | 0.00 | 0.00 | 0.00 | 63 | 1011.5 |
| 20260501231004 | 60 | 216 | 3.0 | 9.0 | 0.00 | 0.00 | 0.00 | 63 | 1011.3 |
| 20260501230503 | 60 | 208 | 3.0 | 9.0 | 0.00 | 0.00 | 0.00 | 62 | 1011.4 |
| 20260501230007 | 60 | 244 | 3.0 | 8.0 | 0.00 | 0.00 | 0.00 | 62 | 1011.3 |
| 20260501225005 | 61 | 241 | 4.0 | 9.0 | 0.00 | 0.00 | 0.00 | 61 | 1011.2 |
| 20260501224504 | 61 | 175 | 4.0 | 9.0 | 0.00 | 0.00 | 0.00 | 61 | 1011.2 |
| 20260501224005 | 61 | 269 | 4.0 | 9.0 | 0.00 | 0.00 | 0.00 | 61 | 1011.3 |
| 20260501223503 | 61 | 236 | 5.0 | 9.0 | 0.00 | 0.00 | 0.00 | 59 | 1011.3 |
| 20260501223006 | 61 | 202 | 4.0 | 10.0 | 0.00 | 0.00 | 0.00 | 59 | 1011.3 |
| 20260501222503 | 62 | 225 | 4.0 | 12.0 | 0.00 | 0.00 | 0.00 | 59 | 1011.3 |
| 20260501222005 | 62 | 200 | 4.0 | 12.0 | 0.00 | 0.00 | 0.00 | 58 | 1011.3 |
| 20260501221504 | 62 | 227 | 4.0 | 11.0 | 0.00 | 0.00 | 0.00 | 60 | 1011.3 |
| 20260501221005 | 62 | 257 | 4.0 | 10.0 | 0.00 | 0.00 | 0.00 | 58 | 1011.3 |
| 20260501220503 | 62 | 181 | 5.0 | 10.0 | 0.00 | 0.00 | 0.00 | 58 | 1011.4 |
| 20260501220006 | 62 | 266 | 6.0 | 10.0 | 0.00 | 0.00 | 0.00 | 57 | 1011.4 |
| 20260501215505 | 62 | 195 | 5.0 | 10.0 | 0.00 | 0.00 | 0.00 | 57 | 1011.5 |
| 20260501215005 | 63 | 197 | 5.0 | 11.0 | 0.00 | 0.00 | 0.00 | 56 | 1011.5 |
| 20260501214504 | 63 | 240 | 5.0 | 11.0 | 0.00 | 0.00 | 0.00 | 58 | 1011.5 |
| 20260501214005 | 63 | 215 | 5.0 | 13.0 | 0.00 | 0.00 | 0.00 | 56 | 1011.5 |
| 20260501213005 | 64 | 223 | 5.0 | 14.0 | 0.00 | 0.00 | 0.00 | 55 | 1011.4 |
| 20260501212504 | 64 | 169 | 5.0 | 11.0 | 0.00 | 0.00 | 0.00 | 55 | 1011.4 |
| 20260501212005 | 64 | 248 | 4.0 | 10.0 | 0.00 | 0.00 | 0.00 | 55 | 1011.4 |
| 20260501211503 | 64 | 211 | 4.0 | 10.0 | 0.00 | 0.00 | 0.00 | 55 | 1011.4 |
| 20260501211006 | 64 | 195 | 4.0 | 10.0 | 0.00 | 0.00 | 0.00 | 56 | 1011.4 |
| 20260501210504 | 65 | 95 | 3.0 | 9.0 | 0.00 | 0.00 | 0.00 | 57 | 1011.5 |
| 20260501210006 | 65 | 227 | 3.0 | 9.0 | 0.00 | 0.00 | 0.00 | 57 | 1011.6 |
| 20260501204503 | 63 | 177 | 4.0 | 10.0 | 0.00 | 0.00 | 0.00 | 59 | 1011.5 |
| 20260501204004 | 64 | 217 | 5.0 | 13.0 | 0.00 | 0.00 | 0.00 | 58 | 1011.5 |
| 20260501203005 | 63 | 78 | 4.0 | 12.0 | 0.00 | 0.00 | 0.00 | 56 | 1011.6 |
| 20260501202504 | 64 | 74 | 4.0 | 12.0 | 0.00 | 0.00 | 0.00 | 56 | 1011.8 |
| 20260501202005 | 64 | 63 | 3.0 | 10.0 | 0.00 | 0.00 | 0.00 | 57 | 1011.8 |
| 20260501201503 | 64 | 235 | 3.0 | 7.0 | 0.00 | 0.00 | 0.00 | 55 | 1011.8 |
| 20260501201005 | 64 | 229 | 4.0 | 11.0 | 0.00 | 0.00 | 0.00 | 53 | 1011.9 |
| 20260501200503 | 65 | 96 | 4.0 | 12.0 | 0.00 | 0.00 | 0.00 | 53 | 1011.9 |
| 20260501200006 | 65 | 136 | 4.0 | 8.0 | 0.00 | 0.00 | 0.00 | 54 | 1012.0 |
| 20260501195503 | 65 | 210 | 4.0 | 13.0 | 0.00 | 0.00 | 0.00 | 54 | 1012.0 |
| 20260501195005 | 64 | 88 | 4.0 | 13.0 | 0.00 | 0.00 | 0.00 | 53 | 1012.0 |
| 20260501194503 | 64 | 123 | 3.0 | 9.0 | 0.00 | 0.00 | 0.00 | 51 | 1011.9 |
| 20260501194003 | 65 | 113 | 4.0 | 10.0 | 0.00 | 0.00 | 0.00 | 52 | 1012.0 |
| 20260501193503 | 64 | 214 | 4.0 | 10.0 | 0.00 | 0.00 | 0.00 | 51 | 1012.1 |
| 20260501193002 | 64 | 255 | 4.0 | 10.0 | 0.00 | 0.00 | 0.00 | 56 | 1012.1 |
| 20260501192501 | 64 | 98 | 4.0 | 10.0 | 0.00 | 0.00 | 0.00 | 54 | 1012.2 |
| 20260501191003 | 63 | 61 | 4.0 | 11.0 | 0.00 | 0.00 | 0.00 | 52 | 1012.5 |
| 20260501190502 | 64 | 198 | 4.0 | 12.0 | 0.00 | 0.00 | 0.00 | 48 | 1012.6 |
| 20260501190004 | 65 | 175 | 3.0 | 9.0 | 0.00 | 0.00 | 0.00 | 56 | 1012.6 |
| 20260501185502 | 65 | 178 | 4.0 | 9.0 | 0.00 | 0.00 | 0.00 | 53 | 1012.6 |
| 20260501185003 | 64 | 214 | 4.0 | 10.0 | 0.00 | 0.00 | 0.00 | 51 | 1012.7 |
| 20260501184004 | 63 | 209 | 4.0 | 9.0 | 0.00 | 0.00 | 0.00 | 53 | 1012.9 |
| 20260501183502 | 63 | 211 | 3.0 | 9.0 | 0.00 | 0.00 | 0.00 | 49 | 1013.0 |
| 20260501182502 | 64 | 355 | 4.0 | 9.0 | 0.00 | 0.00 | 0.00 | 46 | 1013.0 |
| 20260501182003 | 64 | 121 | 4.0 | 7.0 | 0.00 | 0.00 | 0.00 | 47 | 1012.9 |
| 20260501181502 | 65 | 261 | 3.0 | 8.0 | 0.00 | 0.00 | 0.00 | 42 | 1013.0 |
| 20260501181004 | 65 | 230 | 3.0 | 7.0 | 0.00 | 0.00 | 0.00 | 44 | 1013.0 |
| 20260501180503 | 64 | 167 | 3.0 | 6.0 | 0.00 | 0.00 | 0.00 | 41 | 1012.8 |
| 20260501180005 | 64 | 82 | 3.0 | 6.0 | 0.00 | 0.00 | 0.00 | 45 | 1012.9 |
| 20260501175502 | 64 | 100 | 2.0 | 6.0 | 0.00 | 0.00 | 0.00 | 45 | 1013.0 |
| 20260501175002 | 64 | 223 | 3.0 | 6.0 | 0.00 | 0.00 | 0.00 | 44 | 1013.0 |
| 20260501174504 | 64 | 90 | 3.0 | 7.0 | 0.00 | 0.00 | 0.00 | 46 | 1013.0 |
| 20260501174011 | 66 | 157 | 2.0 | 7.0 | 0.00 | 0.00 | 0.00 | 40 | 1013.1 |
| 20260501173503 | 65 | 5 | 3.0 | 5.0 | 0.00 | 0.00 | 0.00 | 47 | 1013.1 |
| 20260501173003 | 65 | 13 | 3.0 | 6.0 | 0.00 | 0.00 | 0.00 | 38 | 1013.1 |
| 20260501172501 | 65 | 341 | 2.0 | 6.0 | 0.00 | 0.00 | 0.00 | 39 | 1013.2 |
| 20260501172004 | 63 | 186 | 3.0 | 6.0 | 0.00 | 0.00 | 0.00 | 44 | 1013.3 |
| 20260501171502 | 63 | 186 | 3.0 | 6.0 | 0.00 | 0.00 | 0.00 | 39 | 1013.3 |